Weather in Guney

Russia / Zabaykalsky Krai     50°31′09″N   114°33′23″E
temp.,
°C
wind,
m/s
gust,
m/s
humid.,
%
clouds,
%
prec.,
mm/h
press.,
hPa
HPBL,
m
17 may, tue
tue1700:00+13wnw332928 0.0 100224
03:00+10wnw343734 0.0 100364
06:00+8w364346 0.0 1005103
09:00+15nw793140 0.0 10051158
12:00+18nnw68235 0.0 10052885
15:00+21nnw571898 0.0 10033318
18:00+21n361799 0.0 10023381
21:00+18nnw3525100 0.0 100481
18 may, wed
wed1800:00+15wnw6134369 0.1 1006375
03:00+12w511565 0.1 1007305
06:00+10w611735 0.0 1007363
09:00+15nw8104746 0.0 1007903
12:00+20nw7103111 0.0 10062521
15:00+22nnw9112679 0.0 10053082
18:00+22n811258 0.0 10052933
21:00+17n35325 0.0 100785
19 may, thu
thu1900:00+14wnw22425 0.0 100912
03:00+12wnw22446 0.0 101010
06:00+11wnw224812 0.0 101211
09:00+17w34355 0.0 1012388
12:00+22w55235 0.0 10112243
15:00+25wsw57198 0.0 10082897
18:00+26nw69175 0.0 10063419
21:00+21wnw222891 0.1 100621
20 may, fri
fri2000:00+17nw6144699 0.3 1008470
03:00+15wnw511514 0.4 1009250
06:00+12w325795 0.0 101025
09:00+18wnw583553 0.0 10091010
12:00+23nw711175 0.0 10072855
15:00+26nw814105 0.0 10044091
18:00+26nnw913105 0.0 10023999
21:00+20nw221821 0.0 100414
21 may, sat
sat2100:00+16nw33235 0.0 100719
03:00+13nnw222974 0.0 100914
06:00+11nnw2238100 0.0 101117
09:00+16n2332100 0.0 1012432
12:00+19wnw242575 0.0 10121345
15:00+24wsw362220 0.0 10082641
18:00+23w7735100 0.0 10072323
21:00+19sw3343100 0.0 100539